Location: Newark
(46.7000°N, 60.6000°W)
Time: 14:10:49
(UTC+00:00)

A-11 Canister half - Pass Details

Date: 09 November 2020
Orbit: 1516 x 1684 km, 47.2° (Epoch: 03 December)

Event Time Altitude Azimuth Distance (km) Brightness Sun altitude
Rises 00:27:03 0° 274° (W) 4,939 12.5 -39.5°
Reaches altitude 10° 00:30:13 10° 275° (W) 3,947 11.8 -40.0°
Enters shadow 00:39:02 71° 281° (W) 1,745 9.2 -41.4°
